Weather in Degtyarevka

Russia / Bryansk Oblast     53°15′22″N   32°39′12″E
temp.,
°C
wind,
m/s
gust,
m/s
humid.,
%
clouds,
%
prec.,
mm/h
press.,
hPa
HPBL,
m
23 april, fri
fri2300:00+9ssw51485100 0.2 1013495
03:00+8ssw5119096 0.3 1013549
06:00+7ssw3796100 0.3 1013466
09:00+5wnw3694100 1.6 1015682
12:00+8wsw4664100 0.4 10151340
15:00+10wsw5746100 0.4 10142032
18:00+9w4657100 0.1 10141405
21:00+5w2674100 0.1 1014159
24 april, sat
sat2400:00+3w2581100 0.0 1013113
03:00+2wsw26875 0.0 1012120
06:00+1wsw399378 0.1 1012317
09:00+2wsw4998100 1.1 1011420
12:00+3wnw5891100 1.1 1012904
15:00+5wnw81065100 1.8 10131769
18:00+5wnw596758 0.3 10141492
21:00+2w412795 0.4 1015441
25 april, sun
sun2500:00+1wsw412845 0.0 1015413
03:00−1wsw411928 0.0 1015352
06:00−1wsw411925 0.0 1015408
09:00+3wsw587050 0.0 10141052
12:00+5wsw5855100 0.1 10141804
15:00+7w6938100 0.3 10132433
18:00+5w58567 0.1 10131623
21:00+1wsw38765 0.1 1015208
26 april, mon
mon2600:000sw310835 0.0 1015235
03:00−1wsw38875 0.0 1015191
06:00−1wsw27865 0.0 1015197
09:00+4wsw465618 0.0 1015909
12:00+7wsw574399 0.1 10132275
15:00+8w5735100 0.1 10122621
18:00+7wsw464787 0.1 10121682
21:00+1w22765 0.3 101222
27 april, tue
tue2700:000sw228155 0.1 101242
03:000sw2682100 0.1 1011141
06:00−1sw378786 0.0 1011196
09:00+3sw4677100 0.1 1010824
12:00+2sw4793100 1.3 1010514
15:00+3w468983 2.1 1010640
18:00+5wnw347092 0.3 10101130
21:00+1wsw389538 0.4 1012174